Flag for U.S.A. Weather past 2 weeks in Atascadero, California, U.S.A.

Now
88 °F

Sunny.


Feels Like: 84 °F
Forecast: 49 / 80 °F
Wind: 5 mph from West

Location: Paso Robles Municipal Airport

Current Time: May 28, 2015 at 3:28:25 PM

Latest Report: May 28, 2015 at 2:53 PM


Visibility: 10 mi

Pressure: 29.90 "Hg

Humidity: 13%

Dew point: 32 °F

Location of AtascaderoLocation

Historic Weather in Atascadero — Graph

°F

Atascadero temperature yesterday

Maximum temperature yesterday: 83 °F (at 3:53 PM)
Minimum temperature yesterday: 52 °F (at 12:53 AM)
Average temperature yesterday: 64 °F

Past Weeks' High & Low Weather Summary

 TemperatureHumidityPressure
High87 °F (May 28, 1:53 PM)93% (May 16, 5:53 AM)30.11 "Hg (May 16, 5:53 AM)
Low42 °F (May 16, 6:53 AM)17% (May 28, 1:53 PM)29.78 "Hg (May 14, 4:53 PM)
Average59 °F65%29.96 "Hg
* Reported May 13 1:53 PM — May 28 1:53 PM, Atascadero, Weather by CustomWeather, © 2015

Note: Actual official high and low records may vary slightly from our data, if they occured in-between our weather recording intervals... More about our weather records

Advertising

Atascadero weather history for previous 24 hours

 ConditionsComfort  
Time TempWeatherWind HumidityBarometerVisibility
1:53 PM
Thu, May 28
87 °FSunny.5 mph17%29.92 "Hg10 mi
12:53 PM81 °FSunny.6 mph28%29.96 "Hg10 mi
11:53 AM74 °FSunny.6 mph38%29.98 "Hg10 mi
10:53 AM68 °FSunny.7 mph53%30.00 "Hg10 mi
9:53 AM61 °FSunny.6 mph67%30.02 "Hg10 mi
8:53 AM55 °FLow clouds.5 mph83%30.03 "Hg10 mi
7:53 AM53 °FLow clouds.3 mph86%30.02 "Hg10 mi
6:53 AM51 °FFog.5 mph92%30.01 "Hg4 mi
5:53 AM52 °FLow clouds.7 mph89%29.99 "Hg9 mi
4:53 AM52 °FLow clouds.6 mph89%29.98 "Hg10 mi
3:53 AM51 °FLow clouds.5 mph92%29.97 "Hg9 mi
2:53 AM51 °FClear.5 mph89%29.97 "Hg10 mi
1:53 AM53 °FClear.5 mph83%29.98 "Hg10 mi
12:53 AM54 °FClear.9 mph80%29.99 "Hg10 mi
11:53 PM
Wed, May 27
56 °FClear.9 mph75%29.99 "Hg10 mi
10:53 PM59 °FClear.6 mph67%29.98 "Hg10 mi
9:53 PM61 °FClear.15 mph62%29.97 "Hg10 mi
8:53 PM64 °FSunny.15 mph52%29.96 "Hg10 mi
7:53 PM69 °FSunny.15 mph42%29.93 "Hg10 mi
6:53 PM77 °FSunny.15 mph35%29.91 "Hg10 mi
5:53 PM78 °FSunny.15 mph32%29.89 "Hg10 mi
4:53 PM81 °FSunny.15 mph32%29.89 "Hg10 mi
3:53 PM83 °FSunny.13 mph32%29.90 "Hg10 mi
Weather by CustomWeather, © 2015

See weather overviewHow to use our weather pages